Powrót do katalogu

SL-3 DEB

AktywnyPO
NORAD 9664·DEBRIS·🇷🇺 Russia

Wystrzelony Jan 6, 1977 z Plesetsk Cosmodrome

Loading…

Następne Przeloty (najbliższe 24 godziny)

TLE

ŚwieżeSource: Space-Track

Epoka: Sep 14, 2026, 15:21 UTC

1 09664U 77002D   26257.64026534  .00000110  00000-0  63542-4 0  9999
2 09664  81.2666  37.9001 0009012 168.5993 191.5380 14.02237294541167

Śledź SL-3 DEB w czasie rzeczywistym z AllMySat

Download on the App Store